Regional Weather Roundup
Issued by NWS

Home | Current Version | Previous Version | Text Only | Print | Product List | Glossary On
Versions: 1 2 3 4 5 6 7 8 9 10 11 12 13 14 15 16 17 18 19 20 21 22 23 24 25 26 27 28 29 30 31 32 33 34 35 36 37 38 39 40 41 42 43 44 45 46 47 48 49 50
000
ASUS44 KFWD 231303
RWRTX
NORTH TEXAS HOURLY WEATHER ROUNDUP
NATIONAL WEATHER SERVICE FORT WORTH TX
800 AM CDT SAT AUG 23 2014

NOTE: "FAIR" INDICATES FEW OR NO CLOUDS BELOW 12,000 FEET WITH NO
SIGNIFICANT WEATHER AND/OR OBSTRUCTIONS TO VISIBILITY.

TXZ118-119-231400-
DALLAS/FORT WORTH METROPLEX

CITY           SKY/WX    TMP DP  RH WIND       PRES   REMARKS
DFW AIRPORT    SUNNY     80  67  64 S8        29.99R
DALLAS LOVE    SUNNY     81  67  62 SW6       30.00R
FTW MEACHAM    SUNNY     80  63  55 S10       29.99R
DAL-EXECUTIVE  SUNNY     80  68  66 VRB5      30.00R
FTW-ALLIANCE   SUNNY     79  63  57 S7        29.98R
FTW-NAS-JRB    SUNNY     81  62  52 S10       30.03R
FTW-SPINKS     SUNNY     77  64  65 S9        30.02R
ARLINGTON      SUNNY     77  67  71 S7        30.00R
GRAND PRAIRIE  SUNNY     77  66  69 S6        30.01R
ADDISON        SUNNY     81  66  61 S7        30.01R
LANCASTER      SUNNY     75  68  79 S3        30.02R
$$

TXZ091>094-102>105-117-120-121-131>134-231400-
NORTH CENTRAL TEXAS

CITY           SKY/WX    TMP DP  RH WIND       PRES   REMARKS
SHRMAN/DENISON SUNNY     79  66  65 S8        30.01R
GAINESVILLE    SUNNY     74  67  79 CALM      30.02R
BOWIE          SUNNY     75  66  73 SE6       30.00S
BRIDGEPORT     SUNNY     76  59  55 S3        30.02R
DECATUR        SUNNY     78  62  57 S9        30.01R
DENTON         SUNNY     78  66  66 S5        29.99R
MCKINNEY       SUNNY     76  71  85 S6        30.01R
GREENVILLE     SUNNY     77  72  83 S5        30.02R
ROCKWALL       SUNNY     77  72  84 S5        30.00R
TERRELL        SUNNY     79  74  84 S8        30.02R
WAXAHACHIE     SUNNY     76  68  76 S3        30.03R
CLEBURNE       SUNNY     75  70  83 S7        30.03R
GRANBURY       SUNNY     78  62  58 SE3       30.02R
$$

TXZ083>090-098>101-113>116-127>130-139>142-154-155-231400-
WESTERN NORTH TEXAS

CITY           SKY/WX    TMP DP  RH WIND       PRES   REMARKS
WICHITA FALLS  SUNNY     78  59  51 S12       29.96R
WF-KICKAPOO    SUNNY     77  58  51 SW7       29.98R
VERNON         SUNNY     73  52  46 S6        29.98S
ABILENE        PTCLDY    76  62  62 S10       30.02S
ABILENE-DYESS  PTCLDY    76  64  65 S10       30.01R
BRECKENRIDGE   SUNNY     77  58  52 S5        30.00S HAZE
GRAHAM         SUNNY     77  59  53 S3        29.98S
MINERAL WELLS  SUNNY     73  63  70 SE8       30.00R
STEPHENVILLE   SUNNY     71  60  68 S3        30.05R
COMANCHE       SUNNY     73  60  62 SW3       30.04R
BROWNWOOD      SUNNY     72  59  64 SE7       30.03S
COLEMAN        MOSUNNY   70  60  70 CALM      30.04R
BRADY          SUNNY     72  63  73 SE6       30.04R
$$

TXZ143>147-156>162-174-175-231400-
CENTRAL TEXAS

CITY           SKY/WX    TMP DP  RH WIND       PRES   REMARKS
WACO           SUNNY     77  72  84 S10       30.02R
WACO-TSTC      SUNNY     75  72  88 S6        30.02R
WACO-MCGREGOR  SUNNY     75  66  73 S6        30.04R
HILLSBORO      SUNNY     77  69  77 S7        30.02R
CORSICANA      SUNNY     76  71  85 S8        30.03R
MEXIA          SUNNY     73  72  96 S3        30.03R
HEARNE           N/A     75  73  96 CALM      30.03S
CAMERON        SUNNY     76  74  94 S5        30.03S
TEMPLE         SUNNY     73  68  83 S9        30.02S
KILLEEN        SUNNY     73  70  88 S7        30.03S
KILLEEN-SKYLRK SUNNY     75  66  73 S8        30.02F
FORT HOOD      SUNNY     76  71  85 SE6       30.03S
GATESVILLE     SUNNY     73  68  83 CALM      30.05R HAZE
HAMILTON       SUNNY     73  63  71 S10       30.04R
LAMPASAS       SUNNY     71  68  91 CALM      30.03R
$$

TXZ095>097-106>112-122>126-135>138-148>153-164>167-231400-
EAST TEXAS

CITY           SKY/WX    TMP DP  RH WIND       PRES   REMARKS
PARIS          SUNNY     75  66  73 SE7       30.02R
SULPHUR SPRNGS SUNNY     78  71  79 S9        30.04R HAZE
CLARKSVILLE    CLOUDY    76  73  89 S3        30.01S
MOUNT PLEASANT SUNNY     73  72  98 S3        30.04R
GILMER         SUNNY     75  75 100 S3        30.05R
MINEOLA        SUNNY     77  73  88 CALM      30.03R
TYLER          SUNNY     76  72  87 S6        30.03R
LONGVIEW       SUNNY     75  72  90 S5        30.03R
MARSHALL       SUNNY     76  73  92 S3        30.06R
ATHENS         SUNNY     73  72  94 S5        30.03R
PALESTINE      MOSUNNY   74  74  98 SE3       30.05R FOG
JACKSONVILLE   MOSUNNY   74  73  96 S5        30.07R FOG
HENDERSON      SUNNY     73  73 100 CALM      30.06R FOG
NACOGDOCHES    SUNNY     73  72  94 CALM      30.06R
LUFKIN         SUNNY     77  73  87 CALM      30.04R
$$

SUPPLEMENTAL OBSERVATIONS (CENTRAL)

CITY           SKY/WX    TMP DP  RH WIND       PRES   REMARKS
$$

SUPPLEMENTAL OBSERVATIONS (WEST)

CITY           SKY/WX    TMP DP  RH WIND       PRES   REMARKS
$$

SUPPLEMENTAL OBSERVATIONS (EAST)

CITY           SKY/WX    TMP DP  RH WIND       PRES   REMARKS
$$

SUPPLEMENTAL OBSERVATIONS ARE A COLLECTION OF AUTOMATED INSTRUMENTS
THAT ARE MAINTAINED BY A VARIETY OF FEDERAL AND STATE AGENCIES.
CERTAIN ELEMENTS...SUCH AS HUMIDITY VALUES AND SUSTAINED WIND
SPEEDS...MAY BE APPROXIMATED.



USA.gov is the U.S. government's official web portal to all federal, state and local government web resources and services.